Location: Newark
(35.0033°N, 81.0878°W)
Time: 11:13:44
(UTC+00:00)

Envisat - Pass Details

Date: 31 October 2020
Orbit: 764 x 766 km, 98.1° (Epoch: 03 December)

Event Time Altitude Azimuth Distance (km) Brightness Sun altitude
Rises 11:13:28 0° 14° (NNE) 3,236 6.3 -7.1°
Reaches altitude 10° 11:15:47 10° 16° (NNE) 2,306 5.5 -6.6°
Maximum altitude 11:20:52 77° 102° (ESE) 787 3.3 -5.6°
Drops below altitude 10° 11:25:56 10° 188° (S) 2,291 5.6 -4.6°
Sets 11:28:13 0° 190° (S) 3,212 6.3 -4.1°
